| time (UTC) | temp C | wind direction | speed KPH | gust KPH | rain 1hr cm | rain 24hr cm | rain mn cm | humidity % | barometer mb |
| 20260505124543 | 17 | 300 | 1.6 | 4.8 | 0.00 | 0.00 | 0.00 | 84 | 1017.6 |
| 20260505123033 | 17 | 222 | 1.6 | 4.8 | 0.00 | 0.00 | 0.00 | 86 | 1017.6 |
| 20260505121546 | 16 | 297 | 0.0 | 3.2 | 0.00 | 0.00 | 0.00 | 87 | 1017.5 |
| 20260505120026 | 16 | 68 | 0.0 | 3.2 | 0.00 | 0.00 | 0.00 | 89 | 1017.4 |
| 20260505114525 | 15 | 264 | 0.0 | 3.2 | 0.00 | 0.00 | 0.00 | 90 | 1017.3 |
| 20260505113024 | 15 | 271 | 0.0 | 3.2 | 0.00 | 0.00 | 0.00 | 91 | 1017.3 |
| 20260505111528 | 14 | 251 | 0.0 | 1.6 | 0.00 | 0.00 | 0.00 | 92 | 1017.1 |
| 20260505101545 | 13 | 194 | 0.0 | 0.0 | 0.00 | 0.00 | 0.00 | 93 | 1016.5 |
| 20260505100058 | 13 | 185 | 0.0 | 0.0 | 0.00 | 0.00 | 0.00 | 92 | 1016.4 |
| 20260505094536 | 13 | 223 | 0.0 | 1.6 | 0.00 | 0.00 | 0.00 | 91 | 1016.3 |
| 20260505093033 | 13 | 266 | 0.0 | 1.6 | 0.00 | 0.00 | 0.00 | 91 | 1016.2 |
| 20260505091536 | 13 | 280 | 0.0 | 1.6 | 0.00 | 0.00 | 0.00 | 91 | 1016.1 |
| 20260505090029 | 13 | 220 | 0.0 | 0.0 | 0.00 | 0.00 | 0.00 | 90 | 1016.1 |
| 20260505084527 | 13 | 212 | 0.0 | 1.6 | 0.00 | 0.00 | 0.00 | 90 | 1016.0 |
| 20260505083034 | 14 | 181 | 0.0 | 0.0 | 0.00 | 0.00 | 0.00 | 90 | 1015.8 |
| 20260505081522 | 14 | 283 | 0.0 | 1.6 | 0.00 | 0.00 | 0.00 | 88 | 1016.0 |
| 20260505080019 | 15 | 59 | 0.0 | 1.6 | 0.00 | 0.00 | 0.00 | 88 | 1015.8 |
| 20260505074514 | 15 | 216 | 0.0 | 1.6 | 0.00 | 0.00 | 0.00 | 86 | 1015.7 |
| 20260505073013 | 15 | 137 | 0.0 | 1.6 | 0.00 | 0.00 | 0.00 | 86 | 1015.6 |
| 20260505071509 | 15 | 221 | 0.0 | 3.2 | 0.00 | 0.00 | 0.00 | 85 | 1015.6 |
| 20260505070009 | 15 | 174 | 0.0 | 1.6 | 0.00 | 0.00 | 0.00 | 85 | 1015.6 |
| 20260505064505 | 15 | 227 | 0.0 | 1.6 | 0.00 | 0.00 | 0.00 | 85 | 1015.5 |
| 20260505063004 | 16 | 186 | 0.0 | 3.2 | 0.00 | 0.00 | 0.00 | 84 | 1015.5 |
| 20260505061600 | 16 | 246 | 0.0 | 4.8 | 0.00 | 0.00 | 0.00 | 83 | 1015.5 |
| 20260505060059 | 16 | 175 | 0.0 | 3.2 | 0.00 | 0.00 | 0.00 | 83 | 1015.5 |
| 20260505054541 | 16 | 218 | 0.0 | 1.6 | 0.00 | 0.00 | 0.00 | 82 | 1015.5 |
| 20260505053028 | 16 | 349 | 0.0 | 3.2 | 0.00 | 0.00 | 0.00 | 82 | 1015.7 |
| 20260505051535 | 17 | 238 | 0.0 | 3.2 | 0.00 | 0.00 | 0.00 | 81 | 1015.7 |
| 20260505041533 | 17 | 346 | 0.0 | 3.2 | 0.00 | 0.00 | 0.00 | 79 | 1015.7 |
| 20260505040016 | 17 | 295 | 0.0 | 4.8 | 0.00 | 0.00 | 0.00 | 79 | 1015.6 |
| 20260505034515 | 18 | 324 | 0.0 | 3.2 | 0.00 | 0.00 | 0.00 | 79 | 1015.7 |
| 20260505033015 | 18 | 75 | 0.0 | 4.8 | 0.00 | 0.00 | 0.00 | 78 | 1015.6 |
| 20260505031524 | 18 | 233 | 0.0 | 6.4 | 0.00 | 0.00 | 0.00 | 76 | 1015.6 |
| 20260505030012 | 18 | 255 | 0.0 | 3.2 | 0.00 | 0.00 | 0.00 | 76 | 1015.7 |
| 20260505024511 | 19 | 77 | 0.0 | 3.2 | 0.00 | 0.00 | 0.00 | 75 | 1015.6 |
| 20260505023015 | 20 | 170 | 0.0 | 3.2 | 0.00 | 0.00 | 0.00 | 74 | 1015.5 |
| 20260505021516 | 20 | 233 | 1.6 | 4.8 | 0.00 | 0.00 | 0.00 | 70 | 1015.4 |
| 20260505021510 | 20 | 186 | 1.6 | 4.8 | 0.00 | 0.00 | 0.00 | 70 | 1015.4 |
| 20260505020008 | 20 | 6 | 1.6 | 6.4 | 0.00 | 0.00 | 0.00 | 65 | 1015.3 |
| 20260505014515 | 21 | 72 | 0.0 | 3.2 | 0.00 | 0.00 | 0.00 | 60 | 1015.1 |
| 20260505014513 | 21 | 93 | 0.0 | 3.2 | 0.00 | 0.00 | 0.00 | 60 | 1015.1 |
| 20260505013006 | 21 | 307 | 0.0 | 3.2 | 0.00 | 0.00 | 0.00 | 59 | 1014.8 |
| 20260505011509 | 21 | 172 | 0.0 | 3.2 | 0.00 | 0.00 | 0.00 | 58 | 1014.7 |
| 20260505010011 | 21 | 287 | 1.6 | 4.8 | 0.00 | 0.00 | 0.00 | 58 | 1014.5 |
| 20260505004504 | 21 | 302 | 0.0 | 1.6 | 0.00 | 0.00 | 0.00 | 57 | 1014.2 |
| 20260505003003 | 22 | 182 | 0.0 | 3.2 | 0.00 | 0.00 | 0.00 | 56 | 1014.1 |
| 20260505001502 | 22 | 226 | 0.0 | 3.2 | 0.00 | 0.00 | 0.00 | 54 | 1014.0 |
| 20260505000103 | 23 | 215 | 0.0 | 1.6 | 0.00 | 0.00 | 0.00 | 53 | 1014.0 |
| 20260504234559 | 23 | 256 | 0.0 | 4.8 | 0.00 | 0.00 | 0.00 | 51 | 1013.9 |
| 20260504233108 | 24 | 204 | 0.0 | 6.4 | 0.00 | 0.00 | 0.00 | 50 | 1013.6 |
| 20260504231557 | 25 | 360 | 0.0 | 4.8 | 0.00 | 0.00 | 0.00 | 47 | 1013.5 |
| 20260504230112 | 25 | 295 | 0.0 | 3.2 | 0.00 | 0.00 | 0.00 | 46 | 1013.5 |
| 20260504224611 | 26 | 220 | 0.0 | 3.2 | 0.00 | 0.00 | 0.00 | 45 | 1013.5 |
| 20260504223052 | 27 | 290 | 0.0 | 4.8 | 0.00 | 0.00 | 0.00 | 44 | 1013.5 |
| 20260504221551 | 27 | 293 | 1.6 | 6.4 | 0.00 | 0.00 | 0.00 | 43 | 1013.5 |
| 20260504220055 | 27 | 300 | 0.0 | 6.4 | 0.00 | 0.00 | 0.00 | 46 | 1013.5 |
| 20260504214547 | 27 | 160 | 0.0 | 4.8 | 0.00 | 0.00 | 0.00 | 43 | 1013.7 |
| 20260504213044 | 27 | 295 | 0.0 | 4.8 | 0.00 | 0.00 | 0.00 | 46 | 1013.7 |
| 20260504211544 | 27 | 143 | 0.0 | 9.7 | 0.00 | 0.00 | 0.00 | 45 | 1013.7 |
| 20260504210141 | 27 | 212 | 0.0 | 8.0 | 0.00 | 0.00 | 0.00 | 46 | 1013.7 |
| 20260504204546 | 27 | 195 | 0.0 | 3.2 | 0.00 | 0.00 | 0.00 | 44 | 1013.8 |
| 20260504203039 | 27 | 302 | 1.6 | 4.8 | 0.00 | 0.00 | 0.00 | 44 | 1014.0 |
| 20260504201536 | 27 | 61 | 0.0 | 6.4 | 0.00 | 0.00 | 0.00 | 45 | 1014.1 |
| 20260504200004 | 27 | 292 | 0.0 | 6.4 | 0.00 | 0.00 | 0.00 | 47 | 1014.2 |
| 20260504194600 | 26 | 207 | 1.6 | 6.4 | 0.00 | 0.00 | 0.00 | 46 | 1014.4 |
| 20260504193055 | 26 | 287 | 1.6 | 6.4 | 0.00 | 0.00 | 0.00 | 46 | 1014.4 |
| 20260504191607 | 26 | 299 | 1.6 | 6.4 | 0.00 | 0.00 | 0.00 | 46 | 1014.6 |
| 20260504190051 | 26 | 289 | 1.6 | 6.4 | 0.00 | 0.00 | 0.00 | 48 | 1014.8 |
| 20260504184549 | 26 | 245 | 1.6 | 9.7 | 0.00 | 0.00 | 0.00 | 48 | 1015.0 |
| 20260504183046 | 26 | 331 | 0.0 | 4.8 | 0.00 | 0.00 | 0.00 | 47 | 1015.2 |
| 20260504181543 | 25 | 298 | 1.6 | 6.4 | 0.00 | 0.00 | 0.00 | 47 | 1015.3 |
| 20260504180041 | 25 | 314 | 0.0 | 4.8 | 0.00 | 0.00 | 0.00 | 52 | 1015.3 |
| 20260504174537 | 24 | 103 | 1.6 | 4.8 | 0.00 | 0.00 | 0.00 | 49 | 1015.6 |
| 20260504173034 | 23 | 269 | 1.6 | 6.4 | 0.00 | 0.00 | 0.00 | 54 | 1015.7 |
| 20260504171531 | 23 | 108 | 1.6 | 6.4 | 0.00 | 0.00 | 0.00 | 53 | 1016.2 |